Location: Les Gen�tes
(46.3104°N, 1.5969°E)
Time: 02:41:40
(UTC+00:00)

USA 238 DEB - Pass Details

Date: 01 June 2020
Orbit: 1017 x 1196 km, 63.4° (Epoch: 02 June)

Event Time Altitude Azimuth Distance (km) Brightness Sun altitude
Rises 22:12:02 0° 319° (NW) 3,955 8.1 -17.9°
Reaches altitude 10° 22:14:43 10° 316° (NW) 3,018 7.1 -18.0°
Maximum altitude 22:21:49 61° 238° (WSW) 1,300 4.0 -18.5°
Enters shadow 22:25:49 28° 169° (S) 2,029 4.6 -18.8°
